www.pogodaiklimat.ru

Погода и климат >> Архив погоды >> Австралия >> Западная Австралия >> Перт Монт-Лоули


ПОГОДА в Перт Монт-Лоули

  • Прогноз погоды в Перт Монт-Лоули
  • Монитор погоды в Перт Монт-Лоули

АРХИВ ПОГОДЫ в Перт Монт-Лоули

Время (UTC), дата Ветер
(напр.,м/с)
 
Видим.   Явления Облачность Т
(С)
Тd
(С)
f
(%)
Тe
(С)
Тes
(С)
Комфортность P
(гПа)
Po
(гПа)
Тmin
(С)
Tmax
(С)
R
(мм)
R24
(мм)
S
(см)
10 17.01 ЮЗ 5 н/о н/о +22.4 +14.3 60 +26 +26 жарко 1013.4 1010.5
12 17.01 ЮЗ 4 н/о н/о +20.1 +14.9 72 +23 +23 комфорт 1015.0 1012.1
13 17.01 Ю 4 н/о н/о +19.7 +14.3 71 +22 +22 комфорт 1015.3 1012.4 +26.1
15 17.01 Ю 4 н/о н/о +19.1 +14.4 74 +20 +20 1015.5 1012.6
16 17.01 Ю 3 н/о н/о +18.4 +14.3 77 +19 +19 1015.7 1012.8
18 17.01 Ю 4 н/о н/о +17.4 +12.9 75 +17 +17 1015.4 1012.5
19 17.01 Ю 3 н/о н/о +16.8 +12.3 75 +17 +17 1015.4 1012.5
21 17.01 штиль 0 н/о н/о +14.8 +12.3 85 +14 +14 1016.2 1013.3
22 17.01 штиль 0 н/о н/о +14.5 +12.7 89 +14 +14 1016.7 1013.8
00 18.01 В 3 н/о н/о +21.1 +13.0 60 +23 +23 комфорт 1017.9 1015.0
01 18.01 ЮВ 3 н/о н/о +23.4 +13.6 54 +27 +27 душно 1018.1 1015.2 +14.3
03 18.01 Ю 3 н/о н/о +26.4 +11.7 40 +28 +28 жарко 1017.6 1014.7
04 18.01 Ю 2 н/о н/о +28.7 +10.8 33 +29 +29 жарко 1016.9 1014.0
06 18.01 Ю 3 н/о н/о +31.4 +10.2 27 +31 +31 жарко 1015.5 1012.6
07 18.01 ЮЗ 5 н/о н/о +29.9 +14.0 38 +32 +32 жарко 1015.2 1012.3
09 18.01 ЮЗ 5 н/о н/о +26.6 +13.7 45 +29 +29 жарко 1014.6 1011.7
10 18.01 ЮЗ 4 н/о н/о +26.8 +14.2 46 +29 +29 жарко 1014.7 1011.8
12 18.01 ЮЗ 3 н/о н/о +22.9 +16.2 66 +27 +27 душно 1015.9 1013.0
13 18.01 ЮЗ 2 н/о н/о +22.0 +16.3 70 +26 +26 душно 1016.5 1013.6 +32.9
15 18.01 Ю 2 н/о н/о +21.5 +13.7 61 +24 +24 комфорт 1016.3 1013.4
16 18.01 Ю 2 н/о н/о +20.1 +13.6 66 +23 +23 комфорт 1016.0 1013.1
18 18.01 В 2 н/о н/о +19.7 +9.9 53 +22 +22 комфорт 1015.6 1012.7
19 18.01 В 3 н/о н/о +21.8 +9.7 46 +23 +23 комфорт 1015.4 1012.5
21 18.01 В 4 н/о н/о +20.6 +8.3 45 +22 +22 комфорт 1015.9 1013.0
22 18.01 В 3 н/о н/о +20.1 +8.1 46 +22 +22 комфорт 1016.1 1013.2
00 19.01 В 3 н/о н/о +25.6 +10.6 39 +27 +27 жарко 1016.1 1013.2
01 19.01 В 3 н/о н/о +28.6 +12.1 36 +30 +30 жарко 1016.1 1013.2 +18.3
03 19.01 СВ 4 н/о н/о +34.6 +12.3 26 +35 +35 очень
жарко
1015.0 1012.1
04 19.01 СВ 3 н/о н/о +36.7 +11.5 22 +36 +36 очень
жарко
1014.3 1011.4
06 19.01 СВ 3 н/о н/о +38.9 +7.6 15 +37 +37 очень
жарко
1012.6 1009.7
07 19.01 ЮЗ 5 н/о н/о +37.7 +11.6 21 +37 +37 очень
жарко
1012.1 1009.2
09 19.01 ЮЗ 6 н/о н/о +35.0 +12.6 26 +35 +35 очень
жарко
1011.5 1008.6
10 19.01 ЮЗ 4 н/о н/о +34.5 +12.2 26 +35 +35 очень
жарко
1011.8 1008.9
12 19.01 ЮЗ 3 н/о н/о +30.8 +13.1 34 +32 +32 жарко 1012.7 1009.8
13 19.01 Ю 4 н/о н/о +30.3 +12.7 34 +31 +31 жарко 1013.3 1010.4 +40.5
15 19.01 Ю 2 н/о н/о +28.1 +12.8 39 +30 +30 жарко 1013.0 1010.1
16 19.01 Ю 2 н/о н/о +26.8 +13.2 43 +29 +29 жарко 1012.6 1009.7
18 19.01 Ю 2 н/о н/о +25.8 +11.9 42 +27 +27 жарко 1011.9 1009.0
19 19.01 Ю 1 н/о н/о +22.9 +14.2 58 +26 +26 жарко 1011.7 1008.8
21 19.01 штиль 0 н/о н/о +20.1 +14.0 68 +22 +22 комфорт 1011.7 1008.8
22 19.01 В 3 н/о н/о +25.2 +12.4 45 +27 +27 жарко 1012.2 1009.3
00 20.01 СВ 3 н/о н/о +31.3 +12.6 32 +32 +32 жарко 1012.7 1009.8
01 20.01 СВ 4 н/о н/о +35.3 +11.0 23 +35 +35 очень
жарко
1012.6 1009.7 +20.1
03 20.01 С 4 н/о н/о +40.7 +9.0 15 +39 +39 очень
жарко
1011.6 1008.7
04 20.01 З 3 н/о н/о +41.8 +9.9 15 +40 +40 очень
жарко
1011.0 1008.1
06 20.01 З 4 н/о н/о +39.3 +11.4 19 +38 +38 очень
жарко
1010.3 1007.4
07 20.01 ЮЗ 5 н/о н/о +37.2 +9.7 19 +36 +36 очень
жарко
1009.8 1006.9
09 20.01 ЮЗ 4 н/о н/о +35.0 +12.0 25 +35 +35 очень
жарко
1009.3 1006.4
10 20.01 ЮЗ 3 н/о н/о +32.5 +13.2 31 +33 +33 жарко 1009.5 1006.6
12 20.01 ЮЗ 4 н/о н/о +26.7 +17.2 56 +31 +31 душно 1010.3 1007.4
13 20.01 ЮЗ 1 н/о н/о +25.3 +17.2 61 +29 +29 душно 1010.7 1007.8 +42.2
15 20.01 ЮЗ 2 н/о н/о +23.5 +18.6 74 +28 +28 душно 1010.6 1007.7
16 20.01 З 1 н/о н/о +23.0 +19.4 80 +29 +29 очень
душно
1010.6 1007.7
18 20.01 штиль 0 н/о н/о +21.6 +19.0 85 +26 +26 душно 1009.6 1006.7
19 20.01 штиль 0 н/о н/о +20.9 +19.4 91 +25 +25 комфорт 1009.6 1006.7
21 20.01 штиль 0 н/о н/о +20.0 +18.8 93 +23 +23 комфорт 1009.5 1006.6
22 20.01 ЮЗ 2 н/о н/о +21.3 +20.3 94 +26 +26 душно 1009.9 1007.0
00 21.01 ЮЗ 3 н/о н/о +24.0 +18.9 73 +29 +29 душно 1010.8 1007.9
01 21.01 В 1 н/о н/о +26.2 +18.6 63 +31 +31 очень
душно
1010.7 1007.8 +20.0
03 21.01 З 3 н/о н/о +28.7 +18.8 55 +34 +34 очень
душно
1010.4 1007.5
04 21.01 З 4 н/о н/о +28.2 +18.0 54 +33 +33 очень
душно
1010.4 1007.5
06 21.01 ЮЗ 4 н/о н/о +28.4 +15.7 46 +31 +31 душно 1009.7 1006.8
07 21.01 ЮЗ 5 н/о н/о +28.7 +14.9 43 +31 +31 жарко 1009.0 1006.1
09 21.01 ЮЗ 5 н/о н/о +26.5 +17.0 56 +30 +30 душно 1008.5 1005.6
10 21.01 ЮЗ 5 н/о н/о +25.0 +16.4 59 +28 +28 жарко 1008.6 1005.7
12 21.01 ЮЗ 5 н/о н/о +22.2 +16.9 72 +27 +27 душно 1009.3 1006.4
13 21.01 ЮЗ 4 н/о н/о +22.0 +16.9 73 +26 +26 душно 1009.4 1006.5 +29.9
15 21.01 Ю 3 н/о н/о +22.2 +15.8 67 +26 +26 душно 1009.1 1006.2
16 21.01 Ю 3 н/о н/о +21.8 +14.4 63 +25 +25 комфорт 1008.1 1005.2
18 21.01 Ю 3 н/о н/о +20.3 +13.7 66 +23 +23 комфорт 1007.3 1004.4
19 21.01 Ю 2 н/о н/о +20.0 +13.7 67 +23 +23 комфорт 1007.1 1004.2
21 21.01 Ю 4 н/о н/о +20.5 +13.7 65 +23 +23 комфорт 1005.9 1003.0
22 21.01 Ю 4 н/о н/о +20.4 +12.4 60 +23 +23 комфорт 1006.6 1003.7
00 22.01 Ю 4 н/о н/о +20.5 +13.0 62 +23 +23 комфорт 1006.9 1004.0
01 22.01 ЮВ 4 н/о н/о +21.9 +12.7 56 +24 +24 комфорт 1006.5 1003.6 +19.8
03 22.01 В 3 н/о н/о +24.3 +13.8 52 +27 +27 жарко 1006.1 1003.2
04 22.01 ЮВ 3 н/о н/о +25.3 +13.8 49 +28 +28 жарко 1006.2 1003.3
06 22.01 ЮЗ 3 н/о н/о +29.2 +14.6 41 +31 +31 жарко 1004.2 1001.3
07 22.01 З 5 н/о н/о +28.2 +15.1 45 +31 +31 душно 1003.5 1000.6
09 22.01 З 6 н/о н/о +24.8 +16.0 58 +28 +28 жарко 1003.7 1000.8
10 22.01 ЮЗ 6 н/о н/о +22.7 +16.5 68 +27 +27 душно 1004.2 1001.3
12 22.01 ЮЗ 6 н/о н/о +19.1 +15.6 80 +20 +20 1006.2 1003.3
13 22.01 ЮЗ 6 н/о н/о +18.7 +12.9 69 +19 +19 1006.9 1004.0 +30.6
15 22.01 ЮЗ 5 н/о н/о +17.6 +13.1 75 +17 +17 1006.0 1003.1
16 22.01 ЮЗ 4 н/о н/о +17.9 +13.8 77 +18 +18 1005.6 1002.7
18 22.01 ЮЗ 4 н/о н/о +17.0 +13.7 81 +16 +16 1005.1 1002.2
19 22.01 ЮЗ 4 н/о н/о +16.8 +12.5 76 +16 +16 1004.9 1002.0
21 22.01 ЮЗ 3 н/о н/о +17.0 +11.3 69 +17 +17 1004.8 1001.9
22 22.01 З 2 н/о н/о +17.4 +11.2 67 +18 +18 1005.0 1002.1
00 23.01 СЗ 4 н/о н/о +16.9 +13.8 82 +17 +17 1005.8 1002.9
01 23.01 СЗ 5 н/о {туман} н/о +19.3 +13.3 68 +20 +20 1005.9 1003.0 +16.1
03 23.01 З 6 н/о н/о +20.5 +10.9 54 +22 +22 комфорт 1007.0 1004.1
04 23.01 З 6 н/о {туман} н/о +20.6 +11.0 54 +22 +22 комфорт 1007.2 1004.3
06 23.01 З 6 н/о н/о +20.8 +12.8 60 +23 +23 комфорт 1007.1 1004.2
07 23.01 З 6 н/о {туман} н/о +20.8 +13.5 63 +23 +23 комфорт 1007.0 1004.1
09 23.01 З 6 н/о н/о +18.9 +13.3 70 +19 +19 1007.3 1004.4
10 23.01 З 5 н/о {туман} н/о +17.5 +14.0 80 +17 +17 1007.9 1005.0
12 23.01 З 4 н/о н/о +16.6 +13.7 83 +16 +16 1009.2 1006.3
13 23.01 ЮЗ 5 н/о туман местами н/о +16.1 +13.9 87 +15 +15 1009.9 1007.0 +22.3
15 23.01 З 4 н/о н/о +16.0 +13.8 87 +15 +15 1010.7 1007.8
16 23.01 ЮЗ 4 н/о туман местами н/о +15.6 +13.4 87 +15 +15 1010.7 1007.8
18 23.01 ЮЗ 3 н/о н/о +15.5 +13.9 90 +15 +15 1010.9 1008.0
19 23.01 ЮЗ 4 н/о {туман} н/о +15.8 +12.9 83 +15 +15 1011.0 1008.1
21 23.01 ЮЗ 3 н/о н/о +15.5 +13.3 87 +15 +15 1011.7 1008.8
22 23.01 ЮЗ 3 н/о {туман} н/о +15.6 +13.3 86 +15 +15 1012.2 1009.3
00 24.01 Ю 3 н/о н/о +17.4 +14.1 81 +18 +18 1013.4 1010.5
01 24.01 ЮЗ 5 н/о {туман} н/о +17.4 +12.3 72 +17 +17 1013.7 1010.8 +15.1
03 24.01 ЮЗ 5 н/о н/о +19.5 +14.5 73 +21 +21 комфорт 1014.2 1011.3
04 24.01 ЮЗ 5 н/о в посл. час дождь {туман} н/о +18.6 +13.0 70 +19 +19 1014.4 1011.5
06 24.01 ЮЗ 5 н/о н/о +19.5 +11.5 60 +21 +21 комфорт 1014.1 1011.2
07 24.01 ЮЗ 5 н/о {туман} н/о +20.1 +11.8 59 +22 +22 комфорт 1014.0 1011.1
09 24.01 ЮЗ 5 н/о н/о +19.4 +10.7 57 +20 +20 1014.0 1011.1
10 24.01 ЮЗ 4 н/о н/о +19.6 +10.9 57 +21 +21 комфорт 1013.9 1011.0

 

Местоположение метеостанции Перт Монт-Лоули (Западная Австралия, Австралия): широта -31.92 долгота 115.87 высота над уровнем моря 25 м.

В архиве по умолчанию представлена погода в Перт Монт-Лоули за последнюю неделю. Архивные данные за месяц целиком и за предыдущие месяцы, начиная с января 2011 года, Вы можете получить, выбрав интересующий диапазон дат из раскрывающегося списка и нажав кнопку "Ввод!".


*Определитесь, кто Вы:
робот инопланетянин человек

Внимание! Время в таблицах - всемирное. Для получения местного времени необходимо прибавить поправку, которая равна 8 ч.

Смотрите также архив погоды в соседних городах и на ближайших метеорологических станциях:

Погода в Перте (Западная Австралия, Австралия) (9 км)
Погода в Суонборне (Западная Австралия, Австралия) (10 км)
Погода в Гусберри Хилл (Западная Австралия, Австралия) (17 км)
Погода в Перт Джандакот (Западная Австралия, Австралия) (20 км)
Погода в Ошен Риф (Западная Австралия, Австралия) (22 км)
Погода в Обсерватории Перт (Западная Австралия, Австралия) (27 км)
Погода в Буллсбрук Пирс (Западная Австралия, Австралия) (31 км)
Погода на Острове Роттнест (Западная Австралия, Австралия) (37 км)
Погода на Острове Гарден (Западная Австралия, Австралия) (39 км)
Погода в Гингине (Западная Австралия, Австралия) (50 км)

Пояснения к столбцам:

Ветер - указаны скорость ветра в м/с - средняя за 10 мин, порывы в срок и между сроками (в фигурных скобках) и направление, откуда дует ветер: С - северный, СВ - северо-восточный, В - восточный, ЮВ - юго-восточный, Ю - южный, ЮЗ - юго-западный, З - западный, СЗ - северо-западный.
Видимость - горизонтальная дальность видимости в метрах или километрах. При видимости от 1 до 10 км при отсутствии осадков обычно наблюдается дымка, при ухудшении видимости до 1 км и менее - туман. В сухую погоду видимость может ухудшаться дымом, пылью или мглою.
Явления - указаны атмосферные явления, наблюдавшиеся в срок или в последний час перед сроком; фигурными скобками обозначены явления, наблюдавшиеся между сроками (за 1-3 часа до срока); квадратными скобками обозначены град или гололедные отложения с указанием их диаметра в мм.
Облачность - указаны через наклонную черту общая и нижняя облачность в баллах и высота нижней границы облаков в метрах; квадратными скобками обозначены формы облаков: Ci - перистые, Cs - перисто-слоистые, Cc - перисто-кучевые, Ac - высококучевые, As - высокослоистые, Sc - слоисто-кучевые, Ns - слоисто-дождевые, Cu - кучевые, Cb - кучево-дождевые. Подробнее классификацию облаков см. в Атласе облаков (PDF).
T - Температура воздуха - температура, измеренная на высоте 2 м над землей.
Td - Температура точки росы - температура, при понижении до которой содержащийся в воздухе водяной пар достигнет насыщения.
f - Относительная влажность воздуха - влажноcть воздуха, измеренная на высоте 2 м над землей.
Te - Эффективная температура - температура, которую ощущает одетый по сезону человек в тени. Характеристика душности погоды. При расчете учитывается влияние влажности воздуха и скорости ветра на теплоощущения человека.
Tes - Эффективная температура на солнце - температура, которую ощущает человек, с поправкой на солнечный нагрев. Характеристика знойности погоды. Зависит от высоты солнца над горизонтом, облачности и скорости ветра. Ночью, в пасмурную погоду, а также при ветре 12 м/с и более поправка равна нулю.
P - Атмосферное давление - приведенное к уровню моря атмосферное давление.
Po - Атмосферное давление - измеренное на уровне метеостанции атмосферное давление.
Tmin - Минимальная температура - минимум температуры воздуха на высоте 2 м над землей.
Tmax - Максимальная температура - максимум температуры воздуха на высоте 2 м над землей.
R - Количество осадков - Количество выпавших осадков за период времени, мм. При наведении курсора мыши на число - период времени, за который выпало указанное количество осадков.
R24 - Количество осадков - Количество выпавших осадков за 24 часа, мм.
S - Снежный покров - Высота снежного покрова, см. При наведении курсора мыши на число - состояние снежного покрова и степень покрытия местности в баллах.